Content
SEND FEEDBACK

Daily
Averages
Monthly
Summary
United States of America

HARRISONVILLE, MISSOURI


Home > North America > United States > Missouri
Elevation: 900 feet     Latitude: 38 39N     Longitude: 094 20W

WEATHER
 
SELECT A DAY
Number of Records: 127,399;   Date Range: 3/9/02 - 8/30/14
 
SHARE

PRINT THIS DATA

[ ← Previous Day ]
WEATHER ALMANAC - JANUARY 23, 2013
[ Next Day → ]
[ °C ]   °F
Weather ElementAverageHighLow
Temperature29.7 °F46 °F (1:53 pm)15.1 °F (5:53 am)
Dewpoint14.5 °F19.9 °F (11:53 am)7 °F (1:53 am)
Humidity54.8 %74 % (5:53 am)35 % (1:53 pm)
Barometer30.29 in30.44 in (11:53 pm)30.20 in (2:53 pm)
Wind Speed7.2 mph15 mph (9:53 pm)
Wind Gust24.2 mph (8:53 pm)
Weather ElementAverage
Visibility10 mi
Wind DirectionSSE (174.3 °)

Weather ElementTotal
Precipitation---
Heating Degree Days34.5 (Base 65)
Averaged from 23 records on January 23, 2013
WEATHER CONDITIONS BREAKOUT
WIND DIRECTION BREAKOUT
WEATHER BY HOUR - JANUARY 23, 2013
[ °C ]   °F
Local TimeTemperatureDewpointHumidityBarometerVisibilityWind DirectionWind SpeedGust SpeedPrecipitationEventsConditions
1:53 AM16.0 °F7.0 °F68 %30.31 in10.0 miEast (80°)5.8 mphClear
2:53 AM16.0 °F7.0 °F68 %30.30 in10.0 miESE (120°)3.5 mphClear
3:53 AM16.0 °F7.0 °F68 %30.28 in10.0 miENE (60°)3.5 mphClear
4:53 AM16.0 °F7.0 °F68 %30.27 in10.0 miCalmClear
5:53 AM15.1 °F8.1 °F74 %30.27 in10.0 miCalmClear
6:53 AM16.0 °F7.0 °F68 %30.27 in10.0 miSouth (170°)3.5 mphClear
7:53 AM17.1 °F8.1 °F68 %30.27 in10.0 miSouth (180°)3.5 mphClear
8:53 AM23.0 °F14.0 °F68 %30.26 in10.0 miSSW (210°)4.6 mphClear
9:53 AM30.0 °F17.1 °F59 %30.26 in10.0 miSW (230°)5.8 mphClear
10:53 AM36.0 °F19.0 °F50 %30.27 in10.0 miWSW (240°)4.6 mphClear
11:53 AM41.0 °F19.9 °F43 %30.25 in10.0 miWest (260°)5.8 mphClear
12:53 PM43.0 °F19.0 °F38 %30.21 in10.0 miVariable5.8 mphClear
1:53 PM46.0 °F19.9 °F35 %30.21 in10.0 miNW (310°)11.5 mphClear
2:53 PM46.0 °F19.9 °F35 %30.20 in10.0 miNNW (330°)9.2 mphClear
3:53 PM46.0 °F19.9 °F35 %30.22 in10.0 miNorth (350°)12.7 mphClear
4:53 PM41.0 °F19.9 °F43 %30.23 in10.0 miNNW (340°)6.9 mphClear
5:53 PM37.0 °F19.9 °F50 %30.27 in10.0 miNorth (360°)8.1 mphClear
6:53 PM36.0 °F19.0 °F50 %30.31 in10.0 miNorth (360°)11.5 mphClear
7:53 PM34.0 °F19.0 °F54 %30.33 in10.0 miNorth (360°)10.4 mphClear
8:53 PM32.0 °F15.1 °F50 %30.38 in10.0 miNorth (10°)12.7 mph24.2 mphClear
9:53 PM28.9 °F12.9 °F51 %30.40 in10.0 miNorth (10°)15.0 mphClear
10:53 PM27.0 °F14.0 °F58 %30.41 in10.0 miNorth (10°)11.5 mphClear
11:53 PM25.0 °F12.9 °F60 %30.44 in10.0 miNNE (20°)10.4 mphClear
Hourly data recorded from KLXT, located miles away from Harrisonville, Missouri







STORIES FROM OUR PARTNERS